Darstellungsparameter: Aktuell verwendete Einstellungen:
Skalierung der Graphiken ... ?
xyx+y,   Skalierungsfaktor:      Skalierung: Modus: x, Faktor: 1
Darstellungszeitraum ... ?
Vom - - bis: - -   Zeitraum: 24.01.2021 - 24.01.2021
Min/Max/Avg-Anzeige ... ?
Zeige MMA aktuell
Zeige MMA Monat
Zeige MMA alles
Zeige --A aktuell
Zeige --A Monat
Zeige --A alles
Keine MMA-Anzeige
MMA:
Average (ber die Originaldaten)
MMA-Basis: 24.01.2021 - 24.01.2021
Quicknavigation für Darstellung... ?
Tage:      1T, 2T, 3T, 5T -1T -2T -3T -5T +1T +2T +3T +5T
Wochen: 1W, 2W, 3W -1W -2W -3W +1W +2W +3W
Monate: 1M, 3M, 6M -1M -3M -6M +1M +3M +6M
Jahre:    1J, 3J, 5J, 10J -1J -3J -5J -10J +1J +3J +5J +10J
Nutze für die Darstellung ... ?
Originaldaten oder Mittelwerte auf ...
Stundenbasis Tagesbasis Wochenbasis
Monatsbasis Jahresbasis      Datenbasis: Original-Daten
Darstellen als:
Statistik (Auto) Statistik J:M      Darstellung:
Zur Graphik,    zurück zur Übersicht aller Sensoren.
 
Tabellarische Datenbersicht: ?
 
Sensor: Nr:Datum:Temp:Abs-Feuchte:Windchill:Wind:
Aussen-T/F 1 24-01-2021 00:00:00 3.6 C 5.88 g/m*3 3.6 C 0 km/h
2 24-01-2021 00:05:00 3.6 C 5.88 g/m*3 3.6 C 0 km/h
3 24-01-2021 00:10:00 3.6 C 5.88 g/m*3 3.6 C 0 km/h
4 24-01-2021 00:15:00 3.6 C 5.88 g/m*3 3.6 C 0 km/h
5 24-01-2021 00:20:00 3.6 C 5.88 g/m*3 3.6 C 0 km/h
6 24-01-2021 00:25:00 3.6 C 5.88 g/m*3 3.6 C 0 km/h
7 24-01-2021 00:30:00 3.6 C 5.94 g/m*3 3.6 C 0 km/h
8 24-01-2021 00:35:00 3.6 C 5.94 g/m*3 3.6 C 0 km/h
9 24-01-2021 00:40:00 3.6 C 5.94 g/m*3 3.6 C 0 km/h
10 24-01-2021 00:45:00 3.6 C 5.94 g/m*3 3.6 C 0 km/h
11 24-01-2021 00:50:00 3.6 C 5.94 g/m*3 3.6 C 0 km/h
12 24-01-2021 00:55:00 3.6 C 5.94 g/m*3 3.6 C 0 km/h
13 24-01-2021 01:00:00 3.6 C 5.94 g/m*3 3.6 C 0 km/h
14 24-01-2021 01:05:00 3.5 C 5.9 g/m*3 3.5 C 0 km/h
15 24-01-2021 01:10:00 3.5 C 5.84 g/m*3 3.5 C 0 km/h
16 24-01-2021 01:15:00 3.5 C 5.9 g/m*3 3.5 C 0 km/h
17 24-01-2021 01:20:00 3.4 C 5.8 g/m*3 3.4 C 0 km/h
18 24-01-2021 01:25:00 3.4 C 5.86 g/m*3 3.4 C 0 km/h
19 24-01-2021 01:30:00 3.4 C 5.86 g/m*3 3.4 C 0 km/h
20 24-01-2021 01:35:00 3.4 C 5.86 g/m*3 3.4 C 0 km/h
21 24-01-2021 01:40:00 3.4 C 5.86 g/m*3 3.4 C 1.6 km/h
22 24-01-2021 01:45:00 3.3 C 5.82 g/m*3 3.3 C 1.6 km/h
23 24-01-2021 01:50:00 3.2 C 5.72 g/m*3 0.99 C 8.1 km/h
24 24-01-2021 01:55:00 3.1 C 5.69 g/m*3 3.1 C 4.8 km/h
25 24-01-2021 02:00:00 2.8 C 5.57 g/m*3 1.05 C 6.4 km/h
Sensor: Nr:Datum:Temp:Abs-Feuchte:Windchill:Wind:
Aussen-T/F 26 24-01-2021 02:05:00 2.7 C 5.54 g/m*3 2.7 C 4.8 km/h
27 24-01-2021 02:10:00 2.6 C 5.5 g/m*3 2.6 C 0 km/h
28 24-01-2021 02:15:00 2.4 C 5.42 g/m*3 2.4 C 1.6 km/h
29 24-01-2021 02:20:00 2.4 C 5.42 g/m*3 2.4 C 0 km/h
30 24-01-2021 02:25:00 2.3 C 5.39 g/m*3 2.3 C 4.8 km/h
31 24-01-2021 02:30:00 2.2 C 5.35 g/m*3 2.2 C 4.8 km/h
32 24-01-2021 02:35:00 2.1 C 5.31 g/m*3 0.24 C 6.4 km/h
33 24-01-2021 02:40:00 2 C 5.28 g/m*3 2 C 1.6 km/h
34 24-01-2021 02:45:00 1.9 C 5.24 g/m*3 0.01 C 6.4 km/h
35 24-01-2021 02:50:00 2 C 5.28 g/m*3 2 C 3.2 km/h
36 24-01-2021 02:55:00 2 C 5.33 g/m*3 0.13 C 6.4 km/h
37 24-01-2021 03:00:00 2.1 C 5.37 g/m*3 0.24 C 6.4 km/h
38 24-01-2021 03:05:00 2.1 C 5.37 g/m*3 0.24 C 6.4 km/h
39 24-01-2021 03:10:00 2.2 C 5.41 g/m*3 -0.61 C 9.7 km/h
40 24-01-2021 03:15:00 2.2 C 5.41 g/m*3 0.36 C 6.4 km/h
41 24-01-2021 03:20:00 2.2 C 5.41 g/m*3 -0.18 C 8.1 km/h
42 24-01-2021 03:25:00 2.2 C 5.41 g/m*3 -0.61 C 9.7 km/h
43 24-01-2021 03:30:00 2.2 C 5.41 g/m*3 0.36 C 6.4 km/h
44 24-01-2021 03:35:00 2.2 C 5.41 g/m*3 -0.18 C 8.1 km/h
45 24-01-2021 03:40:00 2.2 C 5.41 g/m*3 2.2 C 1.6 km/h
46 24-01-2021 03:45:00 2.2 C 5.41 g/m*3 -0.99 C 11.3 km/h
47 24-01-2021 03:50:00 2.1 C 5.31 g/m*3 -1.74 C 14.5 km/h
48 24-01-2021 03:55:00 2.1 C 5.31 g/m*3 -1.74 C 14.5 km/h
49 24-01-2021 04:00:00 2.1 C 5.31 g/m*3 -0.3 C 8.1 km/h
50 24-01-2021 04:05:00 2.1 C 5.31 g/m*3 -1.74 C 14.5 km/h
Sensor: Nr:Datum:Temp:Abs-Feuchte:Windchill:Wind:
Aussen-T/F 51 24-01-2021 04:10:00 2.1 C 5.31 g/m*3 -1.44 C 12.9 km/h
52 24-01-2021 04:15:00 2.1 C 5.26 g/m*3 -0.73 C 9.7 km/h
53 24-01-2021 04:20:00 2 C 5.22 g/m*3 -2.14 C 16.1 km/h
54 24-01-2021 04:25:00 2 C 5.22 g/m*3 -1.86 C 14.5 km/h
55 24-01-2021 04:30:00 2 C 5.22 g/m*3 -1.23 C 11.3 km/h
56 24-01-2021 04:35:00 2.1 C 5.2 g/m*3 -2.01 C 16.1 km/h
57 24-01-2021 04:40:00 2.1 C 5.2 g/m*3 -2.26 C 17.7 km/h
58 24-01-2021 04:45:00 2.1 C 5.15 g/m*3 -2.26 C 17.7 km/h
59 24-01-2021 04:50:00 2.2 C 5.18 g/m*3 -0.99 C 11.3 km/h
60 24-01-2021 04:55:00 2.2 C 5.18 g/m*3 -1.32 C 12.9 km/h
61 24-01-2021 05:00:00 2.2 C 5.18 g/m*3 -0.61 C 9.7 km/h
62 24-01-2021 05:05:00 2.2 C 5.18 g/m*3 -1.32 C 12.9 km/h
63 24-01-2021 05:10:00 2.2 C 5.18 g/m*3 -1.62 C 14.5 km/h
64 24-01-2021 05:15:00 2.2 C 5.18 g/m*3 -1.62 C 14.5 km/h
65 24-01-2021 05:20:00 2.2 C 5.18 g/m*3 -1.32 C 12.9 km/h
66 24-01-2021 05:25:00 2.2 C 5.18 g/m*3 -0.99 C 11.3 km/h
67 24-01-2021 05:30:00 2.2 C 5.18 g/m*3 -0.61 C 9.7 km/h
68 24-01-2021 05:35:00 2.2 C 5.18 g/m*3 -1.32 C 12.9 km/h
69 24-01-2021 05:40:00 2.2 C 5.18 g/m*3 -1.62 C 14.5 km/h
70 24-01-2021 05:45:00 2.2 C 5.18 g/m*3 -1.62 C 14.5 km/h
71 24-01-2021 05:50:00 2.3 C 5.22 g/m*3 -1.2 C 12.9 km/h
72 24-01-2021 05:55:00 2.3 C 5.22 g/m*3 -1.49 C 14.5 km/h
73 24-01-2021 06:00:00 2.3 C 5.22 g/m*3 -1.49 C 14.5 km/h
74 24-01-2021 06:05:00 2.3 C 5.22 g/m*3 -2.24 C 19.3 km/h
75 24-01-2021 06:10:00 2.3 C 5.16 g/m*3 -2.24 C 19.3 km/h
Sensor: Nr:Datum:Temp:Abs-Feuchte:Windchill:Wind:
Aussen-T/F 76 24-01-2021 06:15:00 2.3 C 5.16 g/m*3 -1.76 C 16.1 km/h
77 24-01-2021 06:20:00 2.3 C 5.16 g/m*3 -1.76 C 16.1 km/h
78 24-01-2021 06:25:00 2.3 C 5.22 g/m*3 -1.49 C 14.5 km/h
79 24-01-2021 06:30:00 2.3 C 5.22 g/m*3 -1.49 C 14.5 km/h
80 24-01-2021 06:35:00 2.3 C 5.22 g/m*3 -1.49 C 14.5 km/h
81 24-01-2021 06:40:00 2.3 C 5.22 g/m*3 -2.24 C 19.3 km/h
82 24-01-2021 06:45:00 2.3 C 5.22 g/m*3 -1.2 C 12.9 km/h
83 24-01-2021 06:50:00 2.3 C 5.22 g/m*3 -0.87 C 11.3 km/h
84 24-01-2021 06:55:00 2.2 C 5.18 g/m*3 -1.62 C 14.5 km/h
85 24-01-2021 07:00:00 2.2 C 5.18 g/m*3 -0.99 C 11.3 km/h
86 24-01-2021 07:05:00 2.2 C 5.18 g/m*3 -0.99 C 11.3 km/h
87 24-01-2021 07:10:00 2.2 C 5.18 g/m*3 -0.61 C 9.7 km/h
88 24-01-2021 07:15:00 2.1 C 5.15 g/m*3 -1.44 C 12.9 km/h
89 24-01-2021 07:20:00 2.1 C 5.15 g/m*3 -1.74 C 14.5 km/h
90 24-01-2021 07:25:00 2.1 C 5.2 g/m*3 -1.74 C 14.5 km/h
91 24-01-2021 07:30:00 2 C 5.17 g/m*3 -1.56 C 12.9 km/h
92 24-01-2021 07:35:00 2 C 5.17 g/m*3 -0.85 C 9.7 km/h
93 24-01-2021 07:40:00 2 C 5.17 g/m*3 -0.85 C 9.7 km/h
94 24-01-2021 07:45:00 2 C 5.17 g/m*3 -1.56 C 12.9 km/h
95 24-01-2021 07:50:00 2 C 5.17 g/m*3 -1.86 C 14.5 km/h
96 24-01-2021 07:55:00 2 C 5.17 g/m*3 -0.85 C 9.7 km/h
97 24-01-2021 08:00:00 2 C 5.17 g/m*3 -1.23 C 11.3 km/h
98 24-01-2021 08:05:00 2 C 5.17 g/m*3 -0.42 C 8.1 km/h
99 24-01-2021 08:10:00 1.9 C 5.19 g/m*3 -1.35 C 11.3 km/h
100 24-01-2021 08:15:00 1.9 C 5.19 g/m*3 -1.35 C 11.3 km/h
Sensor: Nr:Datum:Temp:Abs-Feuchte:Windchill:Wind:
Aussen-T/F 101 24-01-2021 08:20:00 1.9 C 5.19 g/m*3 -1.35 C 11.3 km/h
102 24-01-2021 08:25:00 1.8 C 5.15 g/m*3 -1.47 C 11.3 km/h
103 24-01-2021 08:30:00 1.8 C 5.15 g/m*3 -1.09 C 9.7 km/h
104 24-01-2021 08:35:00 1.8 C 5.15 g/m*3 -1.09 C 9.7 km/h
105 24-01-2021 08:40:00 1.8 C 5.15 g/m*3 -1.47 C 11.3 km/h
106 24-01-2021 08:45:00 1.8 C 5.15 g/m*3 -0.65 C 8.1 km/h
107 24-01-2021 08:50:00 1.7 C 5.12 g/m*3 -1.59 C 11.3 km/h
108 24-01-2021 08:55:00 1.7 C 5.12 g/m*3 -0.77 C 8.1 km/h
109 24-01-2021 09:00:00 1.7 C 5.12 g/m*3 -1.21 C 9.7 km/h
110 24-01-2021 09:05:00 1.7 C 5.17 g/m*3 -0.22 C 6.4 km/h
111 24-01-2021 09:10:00 1.7 C 5.17 g/m*3 -1.21 C 9.7 km/h
112 24-01-2021 09:15:00 1.8 C 5.21 g/m*3 -1.09 C 9.7 km/h
113 24-01-2021 09:20:00 1.8 C 5.21 g/m*3 -1.47 C 11.3 km/h
114 24-01-2021 09:25:00 1.8 C 5.21 g/m*3 -1.47 C 11.3 km/h
115 24-01-2021 09:30:00 1.8 C 5.21 g/m*3 -0.65 C 8.1 km/h
116 24-01-2021 09:35:00 1.8 C 5.21 g/m*3 -0.65 C 8.1 km/h
117 24-01-2021 09:40:00 1.9 C 5.24 g/m*3 -0.97 C 9.7 km/h
118 24-01-2021 09:45:00 1.9 C 5.24 g/m*3 -0.97 C 9.7 km/h
119 24-01-2021 09:50:00 2 C 5.28 g/m*3 -1.56 C 12.9 km/h
120 24-01-2021 09:55:00 2.1 C 5.31 g/m*3 -1.11 C 11.3 km/h
121 24-01-2021 10:00:00 2.1 C 5.31 g/m*3 0.24 C 6.4 km/h
122 24-01-2021 10:05:00 2.1 C 5.31 g/m*3 -0.73 C 9.7 km/h
123 24-01-2021 10:10:00 2.2 C 5.35 g/m*3 -0.99 C 11.3 km/h
124 24-01-2021 10:15:00 2.2 C 5.35 g/m*3 -0.61 C 9.7 km/h
125 24-01-2021 10:20:00 2.3 C 5.39 g/m*3 -0.49 C 9.7 km/h
Sensor: Nr:Datum:Temp:Abs-Feuchte:Windchill:Wind:
Aussen-T/F 126 24-01-2021 10:25:00 2.3 C 5.39 g/m*3 -0.49 C 9.7 km/h
127 24-01-2021 10:30:00 2.4 C 5.42 g/m*3 2.4 C 3.2 km/h
128 24-01-2021 10:35:00 2.4 C 5.42 g/m*3 -0.37 C 9.7 km/h
129 24-01-2021 10:40:00 2.4 C 5.42 g/m*3 0.59 C 6.4 km/h
130 24-01-2021 10:45:00 2.5 C 5.46 g/m*3 2.5 C 4.8 km/h
131 24-01-2021 10:50:00 2.5 C 5.46 g/m*3 2.5 C 1.6 km/h
132 24-01-2021 10:55:00 2.6 C 5.5 g/m*3 0.29 C 8.1 km/h
133 24-01-2021 11:00:00 2.6 C 5.5 g/m*3 -0.14 C 9.7 km/h
134 24-01-2021 11:05:00 2.6 C 5.5 g/m*3 2.6 C 4.8 km/h
135 24-01-2021 11:10:00 2.6 C 5.5 g/m*3 2.6 C 4.8 km/h
136 24-01-2021 11:15:00 2.6 C 5.5 g/m*3 2.6 C 1.6 km/h
137 24-01-2021 11:20:00 2.7 C 5.54 g/m*3 2.7 C 1.6 km/h
138 24-01-2021 11:25:00 2.7 C 5.54 g/m*3 2.7 C 1.6 km/h
139 24-01-2021 11:30:00 2.7 C 5.54 g/m*3 2.7 C 4.8 km/h
140 24-01-2021 11:35:00 2.7 C 5.54 g/m*3 -0.02 C 9.7 km/h
141 24-01-2021 11:40:00 2.7 C 5.48 g/m*3 0.94 C 6.4 km/h
142 24-01-2021 11:45:00 2.7 C 5.54 g/m*3 0.94 C 6.4 km/h
143 24-01-2021 11:50:00 2.8 C 5.51 g/m*3 0.1 C 9.7 km/h
144 24-01-2021 11:55:00 2.8 C 5.51 g/m*3 0.1 C 9.7 km/h
145 24-01-2021 12:00:00 2.7 C 5.48 g/m*3 0.4 C 8.1 km/h
146 24-01-2021 12:05:00 2.8 C 5.51 g/m*3 2.8 C 4.8 km/h
147 24-01-2021 12:10:00 2.8 C 5.57 g/m*3 0.1 C 9.7 km/h
148 24-01-2021 12:15:00 2.8 C 5.51 g/m*3 -0.59 C 12.9 km/h
149 24-01-2021 12:20:00 2.9 C 5.55 g/m*3 -0.46 C 12.9 km/h
150 24-01-2021 12:25:00 2.9 C 5.55 g/m*3 0.64 C 8.1 km/h
Sensor: Nr:Datum:Temp:Abs-Feuchte:Windchill:Wind:
Aussen-T/F 151 24-01-2021 12:30:00 3 C 5.59 g/m*3 0.34 C 9.7 km/h
152 24-01-2021 12:35:00 3 C 5.53 g/m*3 -0.34 C 12.9 km/h
153 24-01-2021 12:40:00 3 C 5.47 g/m*3 -0.63 C 14.5 km/h
154 24-01-2021 12:45:00 3.1 C 5.51 g/m*3 0.1 C 11.3 km/h
155 24-01-2021 12:50:00 3.2 C 5.54 g/m*3 0.22 C 11.3 km/h
156 24-01-2021 12:55:00 3.3 C 5.52 g/m*3 -0.26 C 14.5 km/h
157 24-01-2021 13:00:00 3.4 C 5.5 g/m*3 0.14 C 12.9 km/h
158 24-01-2021 13:05:00 3.6 C 5.57 g/m*3 1.06 C 9.7 km/h
159 24-01-2021 13:10:00 3.6 C 5.51 g/m*3 0.11 C 14.5 km/h
160 24-01-2021 13:15:00 3.6 C 5.51 g/m*3 0.7 C 11.3 km/h
161 24-01-2021 13:20:00 3.6 C 5.51 g/m*3 1.98 C 6.4 km/h
162 24-01-2021 13:25:00 3.7 C 5.55 g/m*3 0.23 C 14.5 km/h
163 24-01-2021 13:30:00 3.7 C 5.48 g/m*3 -0.03 C 16.1 km/h
164 24-01-2021 13:35:00 3.7 C 5.48 g/m*3 0.82 C 11.3 km/h
165 24-01-2021 13:40:00 3.7 C 5.48 g/m*3 1.18 C 9.7 km/h
166 24-01-2021 13:45:00 3.7 C 5.48 g/m*3 1.18 C 9.7 km/h
167 24-01-2021 13:50:00 3.8 C 5.52 g/m*3 0.35 C 14.5 km/h
168 24-01-2021 13:55:00 3.8 C 5.52 g/m*3 0.94 C 11.3 km/h
169 24-01-2021 14:00:00 3.9 C 5.56 g/m*3 2.32 C 6.4 km/h
170 24-01-2021 14:05:00 3.9 C 5.49 g/m*3 0.47 C 14.5 km/h
171 24-01-2021 14:10:00 3.8 C 5.46 g/m*3 0.63 C 12.9 km/h
172 24-01-2021 14:15:00 3.9 C 5.49 g/m*3 0.22 C 16.1 km/h
173 24-01-2021 14:20:00 3.9 C 5.49 g/m*3 0.75 C 12.9 km/h
174 24-01-2021 14:25:00 3.9 C 5.49 g/m*3 0.75 C 12.9 km/h
175 24-01-2021 14:30:00 3.8 C 5.4 g/m*3 0.35 C 14.5 km/h
Sensor: Nr:Datum:Temp:Abs-Feuchte:Windchill:Wind:
Aussen-T/F 176 24-01-2021 14:35:00 3.9 C 5.43 g/m*3 0.75 C 12.9 km/h
177 24-01-2021 14:40:00 3.8 C 5.33 g/m*3 0.94 C 11.3 km/h
178 24-01-2021 14:45:00 3.8 C 5.27 g/m*3 0.1 C 16.1 km/h
179 24-01-2021 14:50:00 3.8 C 5.21 g/m*3 0.1 C 16.1 km/h
180 24-01-2021 14:55:00 3.8 C 5.33 g/m*3 0.63 C 12.9 km/h
181 24-01-2021 15:00:00 3.8 C 5.27 g/m*3 0.94 C 11.3 km/h
182 24-01-2021 15:05:00 3.8 C 5.27 g/m*3 0.63 C 12.9 km/h
183 24-01-2021 15:10:00 3.8 C 5.21 g/m*3 0.63 C 12.9 km/h
184 24-01-2021 15:15:00 3.8 C 5.27 g/m*3 0.63 C 12.9 km/h
185 24-01-2021 15:20:00 3.8 C 5.27 g/m*3 1.29 C 9.7 km/h
186 24-01-2021 15:25:00 3.8 C 5.21 g/m*3 0.94 C 11.3 km/h
187 24-01-2021 15:30:00 3.8 C 5.21 g/m*3 0.94 C 11.3 km/h
188 24-01-2021 15:35:00 3.8 C 5.21 g/m*3 1.7 C 8.1 km/h
189 24-01-2021 15:40:00 3.8 C 5.21 g/m*3 2.21 C 6.4 km/h
190 24-01-2021 15:45:00 3.8 C 5.21 g/m*3 1.7 C 8.1 km/h
191 24-01-2021 15:50:00 3.7 C 5.17 g/m*3 1.58 C 8.1 km/h
192 24-01-2021 15:55:00 3.7 C 5.23 g/m*3 3.7 C 4.8 km/h
193 24-01-2021 16:00:00 3.6 C 5.14 g/m*3 1.98 C 6.4 km/h
194 24-01-2021 16:05:00 3.6 C 5.08 g/m*3 1.98 C 6.4 km/h
195 24-01-2021 16:10:00 3.6 C 5.14 g/m*3 0.7 C 11.3 km/h
196 24-01-2021 16:15:00 3.4 C 5.07 g/m*3 0.82 C 9.7 km/h
197 24-01-2021 16:20:00 3.4 C 5.07 g/m*3 1.23 C 8.1 km/h
198 24-01-2021 16:25:00 3.3 C 5.04 g/m*3 1.11 C 8.1 km/h
199 24-01-2021 16:30:00 3.3 C 5.1 g/m*3 3.3 C 4.8 km/h
200 24-01-2021 16:35:00 3.2 C 5.06 g/m*3 3.2 C 4.8 km/h
Sensor: Nr:Datum:Temp:Abs-Feuchte:Windchill:Wind:
Aussen-T/F 201 24-01-2021 16:40:00 3.2 C 5.06 g/m*3 1.51 C 6.4 km/h
202 24-01-2021 16:45:00 3.1 C 5.03 g/m*3 0.46 C 9.7 km/h
203 24-01-2021 16:50:00 3 C 4.99 g/m*3 -0.02 C 11.3 km/h
204 24-01-2021 16:55:00 2.8 C 4.93 g/m*3 0.1 C 9.7 km/h
205 24-01-2021 17:00:00 2.7 C 4.89 g/m*3 0.94 C 6.4 km/h
206 24-01-2021 17:05:00 2.6 C 4.86 g/m*3 -0.14 C 9.7 km/h
207 24-01-2021 17:10:00 2.4 C 4.85 g/m*3 0.59 C 6.4 km/h
208 24-01-2021 17:15:00 2.3 C 4.82 g/m*3 -0.49 C 9.7 km/h
209 24-01-2021 17:20:00 2.2 C 4.79 g/m*3 0.36 C 6.4 km/h
210 24-01-2021 17:25:00 2.1 C 4.81 g/m*3 2.1 C 4.8 km/h
211 24-01-2021 17:30:00 1.9 C 4.69 g/m*3 -2.26 C 16.1 km/h
212 24-01-2021 17:35:00 1.8 C 4.66 g/m*3 -0.65 C 8.1 km/h
213 24-01-2021 17:40:00 1.8 C 4.66 g/m*3 -0.65 C 8.1 km/h
214 24-01-2021 17:45:00 1.7 C 4.63 g/m*3 -1.21 C 9.7 km/h
215 24-01-2021 17:50:00 1.7 C 4.63 g/m*3 -0.77 C 8.1 km/h
216 24-01-2021 17:55:00 1.6 C 4.65 g/m*3 1.6 C 4.8 km/h
217 24-01-2021 18:00:00 1.4 C 4.59 g/m*3 1.4 C 4.8 km/h
218 24-01-2021 18:05:00 1.3 C 4.61 g/m*3 1.3 C 4.8 km/h
219 24-01-2021 18:10:00 1.2 C 4.58 g/m*3 -1.36 C 8.1 km/h
220 24-01-2021 18:15:00 1.1 C 4.6 g/m*3 -1.48 C 8.1 km/h
221 24-01-2021 18:20:00 0.9 C 4.54 g/m*3 -1.71 C 8.1 km/h
222 24-01-2021 18:25:00 0.9 C 4.54 g/m*3 -1.14 C 6.4 km/h
223 24-01-2021 18:30:00 0.8 C 4.56 g/m*3 -1.26 C 6.4 km/h
224 24-01-2021 18:35:00 0.7 C 4.53 g/m*3 0.7 C 4.8 km/h
225 24-01-2021 18:40:00 0.7 C 4.58 g/m*3 0.7 C 3.2 km/h
Sensor: Nr:Datum:Temp:Abs-Feuchte:Windchill:Wind:
Aussen-T/F 226 24-01-2021 18:45:00 0.6 C 4.54 g/m*3 0.6 C 3.2 km/h
227 24-01-2021 18:50:00 0.5 C 4.51 g/m*3 0.5 C 4.8 km/h
228 24-01-2021 18:55:00 0.4 C 4.48 g/m*3 0.4 C 3.2 km/h
229 24-01-2021 19:00:00 0.3 C 4.5 g/m*3 0.3 C 4.8 km/h
230 24-01-2021 19:05:00 0.3 C 4.5 g/m*3 0.3 C 3.2 km/h
231 24-01-2021 19:10:00 0.2 C 4.47 g/m*3 0.2 C 1.6 km/h
232 24-01-2021 19:15:00 0.2 C 4.47 g/m*3 0.2 C 0 km/h
233 24-01-2021 19:20:00 0.1 C 4.44 g/m*3 0.1 C 0 km/h
234 24-01-2021 19:25:00 0.1 C 4.49 g/m*3 0.1 C 1.6 km/h
235 24-01-2021 19:30:00 0 C 4.46 g/m*3 0 C 0 km/h
236 24-01-2021 19:35:00 0 C 4.46 g/m*3 0 C 0 km/h
237 24-01-2021 19:40:00 0 C 4.46 g/m*3 0 C 0 km/h
238 24-01-2021 19:45:00 -0.1 C 4.43 g/m*3 -0.1 C 0 km/h
239 24-01-2021 19:50:00 -0.1 C 4.47 g/m*3 -0.1 C 0 km/h
240 24-01-2021 19:55:00 -0.1 C 4.47 g/m*3 -0.1 C 0 km/h
241 24-01-2021 20:00:00 -0.1 C 4.47 g/m*3 -0.1 C 0 km/h
242 24-01-2021 20:05:00 -0.1 C 4.47 g/m*3 -0.1 C 0 km/h
243 24-01-2021 20:10:00 -0.1 C 4.47 g/m*3 -0.1 C 0 km/h
244 24-01-2021 20:15:00 -0.1 C 4.47 g/m*3 -0.1 C 1.6 km/h
245 24-01-2021 20:20:00 -0.1 C 4.47 g/m*3 -0.1 C 0 km/h
246 24-01-2021 20:25:00 -0.2 C 4.44 g/m*3 -0.2 C 0 km/h
247 24-01-2021 20:30:00 -0.2 C 4.44 g/m*3 -0.2 C 0 km/h
248 24-01-2021 20:35:00 -0.2 C 4.44 g/m*3 -0.2 C 0 km/h
249 24-01-2021 20:40:00 -0.1 C 4.47 g/m*3 -0.1 C 0 km/h
250 24-01-2021 20:45:00 -0.1 C 4.52 g/m*3 -0.1 C 0 km/h
Sensor: Nr:Datum:Temp:Abs-Feuchte:Windchill:Wind:
Aussen-T/F 251 24-01-2021 20:50:00 -0.1 C 4.52 g/m*3 -0.1 C 0 km/h
252 24-01-2021 20:55:00 -0.1 C 4.52 g/m*3 -0.1 C 0 km/h
253 24-01-2021 21:00:00 -0.1 C 4.52 g/m*3 -0.1 C 0 km/h
254 24-01-2021 21:05:00 -0.1 C 4.52 g/m*3 -0.1 C 0 km/h
255 24-01-2021 21:10:00 -0.1 C 4.52 g/m*3 -0.1 C 0 km/h
256 24-01-2021 21:15:00 -0.1 C 4.52 g/m*3 -0.1 C 0 km/h
257 24-01-2021 21:20:00 -0.1 C 4.52 g/m*3 -0.1 C 0 km/h
258 24-01-2021 21:25:00 0 C 4.55 g/m*3 0 C 0 km/h
259 24-01-2021 21:30:00 0 C 4.55 g/m*3 0 C 1.6 km/h
260 24-01-2021 21:35:00 0.1 C 4.59 g/m*3 0.1 C 3.2 km/h
261 24-01-2021 21:40:00 0.2 C 4.62 g/m*3 0.2 C 1.6 km/h
262 24-01-2021 21:45:00 0.2 C 4.62 g/m*3 0.2 C 3.2 km/h
263 24-01-2021 21:50:00 0.2 C 4.62 g/m*3 0.2 C 0 km/h
264 24-01-2021 21:55:00 0.2 C 4.62 g/m*3 0.2 C 0 km/h
265 24-01-2021 22:00:00 0.2 C 4.62 g/m*3 0.2 C 0 km/h
266 24-01-2021 22:05:00 0.2 C 4.62 g/m*3 0.2 C 1.6 km/h
267 24-01-2021 22:10:00 0.2 C 4.62 g/m*3 0.2 C 1.6 km/h
268 24-01-2021 22:15:00 0.3 C 4.65 g/m*3 0.3 C 3.2 km/h
269 24-01-2021 22:20:00 0.3 C 4.65 g/m*3 0.3 C 0 km/h
270 24-01-2021 22:25:00 0.3 C 4.6 g/m*3 0.3 C 4.8 km/h
271 24-01-2021 22:30:00 0.5 C 4.66 g/m*3 -1.6 C 6.4 km/h
272 24-01-2021 22:35:00 0.7 C 4.68 g/m*3 0.7 C 3.2 km/h
273 24-01-2021 22:40:00 0.8 C 4.66 g/m*3 0.8 C 3.2 km/h
274 24-01-2021 22:45:00 0.8 C 4.66 g/m*3 0.8 C 4.8 km/h
275 24-01-2021 22:50:00 0.8 C 4.66 g/m*3 0.8 C 4.8 km/h
Sensor: Nr:Datum:Temp:Abs-Feuchte:Windchill:Wind:
Aussen-T/F 276 24-01-2021 22:55:00 0.9 C 4.64 g/m*3 0.9 C 4.8 km/h
277 24-01-2021 23:00:00 1.1 C 4.65 g/m*3 1.1 C 1.6 km/h
278 24-01-2021 23:05:00 1.1 C 4.65 g/m*3 1.1 C 4.8 km/h
279 24-01-2021 23:10:00 1.2 C 4.68 g/m*3 1.2 C 4.8 km/h
280 24-01-2021 23:15:00 1.2 C 4.63 g/m*3 -0.8 C 6.4 km/h
281 24-01-2021 23:20:00 1.2 C 4.63 g/m*3 -0.8 C 6.4 km/h
282 24-01-2021 23:25:00 1.3 C 4.66 g/m*3 1.3 C 3.2 km/h
283 24-01-2021 23:30:00 1.3 C 4.66 g/m*3 -0.68 C 6.4 km/h
284 24-01-2021 23:35:00 1.4 C 4.69 g/m*3 1.4 C 4.8 km/h
285 24-01-2021 23:40:00 1.4 C 4.69 g/m*3 1.4 C 1.6 km/h
286 24-01-2021 23:45:00 1.4 C 4.69 g/m*3 1.4 C 3.2 km/h
287 24-01-2021 23:50:00 1.4 C 4.69 g/m*3 1.4 C 1.6 km/h
288 24-01-2021 23:55:00 1.3 C 4.72 g/m*3 1.3 C 1.6 km/h

Legende:
   Min
   Max


Maximal/Minimal-Werte vom 24.01.2021 - 24.01.2021

Sensor Min Max Avg
Temp
(Aussen-T/F)
-0.2 °C
24-01-2021  20:25:00
3.9 °C
24-01-2021  14:00:00
2.13 °C
Abs-Feuchte
(Aussen-T/F)
4.43 g/m*3
24-01-2021  19:45:00
5.94 g/m*3
24-01-2021  00:30:00
5.13 g/m*3
Windchill
(Aussen-T/F)
-2.26 C
24-01-2021  04:40:00
3.7 C
24-01-2021  15:55:00
0.31 C

Die Daten stammen von einer Davis Vantage Pro 2 Wetter-Station und werden unter Linux mit der Software wview2wettercgi und aufbereitet. Alle Angaben erfolgen ohne Gewähr für ihre Vollständigkeit oder Richtigkeit.
Kontakt: Rainer Krienke krienke@uni-koblenz.de . Meine Webseiten an der Uni Koblenz oder privat.
Version: $Revision: 0.78 $